Tracking 18794 objects as of 23-September-2017
HD Live streaming from Space Station
objects crossing your sky now

TURKSAT 1C

Track TURKSAT 1C now!
TURKSAT 1C is classified as:


NORAD ID: 23949
Int'l Code: 1996-040B
Perigee: 35,731.3 km
Apogee: 35,801.3 km
Inclination: 7.3 °
Period: 1,434.7 minutes
Semi major axis: 42137 km
RCS: 2.5119 m2 (large)
Launch date: July 9, 1996
Source: Turkey (TURK)
Launch site: FRENCH GUIANA (FRGUI)

16 Ku-band transponders; radio and TV communications to Turkey and neighboring countries.
aabbcc
Your satellite tracking list
Your tracking list is empty





NASA's NSSDC Master Catalog

Two Line Element Set (TLE):
1 23949U 96040B   17265.79413309 -.00000318  00000-0  00000+0 0  9995
2 23949   7.2938  50.3994 0008303 135.6239 197.6102  1.00369763 77679
Source of the keplerian elements: AFSPC